Location: Asbacherhof
(48.8543°N, 10.7903°E)
Time: 17:16:32
(UTC+00:00)

Cosmos 304 Rocket - Pass Details

Date: 26 May 2022
Orbit: 679 x 686 km, 74.0° (Epoch: 06 July)

Event Time Altitude Azimuth Distance (km) Brightness Sun altitude
Exits shadow 01:17:18 20° 238° (WSW) 1,551 5.1 -14.8°
Maximum altitude 01:20:14 43° 300° (WNW) 961 4.5 -14.6°
Drops below altitude 10° 01:24:51 10° 12° (NNE) 2,146 7.5 -14.2°
Sets 01:27:16 0° 20° (NNE) 3,066 8.8 -14.0°
